• In Hungary
  • List of Countries
  • For 7 days
  • Water Temperature
  • Satellite Maps
  • Weather Map
  • News
  • Weather Widgets
  • user-avatar
    Login

    Hourly Weather Gogolewko

    Today, 22 November, Wednesday

    Time Temperature Precipitation Wind Pressure Humidity
    00:00 -1°C° 0 mm 2 mps 752 mmHg 94%
    01:00 -1°C° 0 mm 2 mps 751 mmHg 94%
    02:00 -1°C° 0 mm 3 mps 751 mmHg 94%
    03:00 -1°C° 0 mm 3 mps 751 mmHg 94%
    04:00 -2°C° 0 mm 4 mps 750 mmHg 94%
    05:00 -1°C° 0.2 mm 4 mps 750 mmHg 91%
    06:00 -1°C° 0.2 mm 5 mps 750 mmHg 89%
    07:00 -1°C° 0.2 mm 6 mps 749 mmHg 87%
    08:00 -1°C° 1.1 mm 6 mps 749 mmHg 87%
    09:00 -1°C° 1.1 mm 7 mps 749 mmHg 87%
    10:00 -1°C° 1.1 mm 7 mps 749 mmHg 88%
    11:00 -1°C° 0.6 mm 7 mps 749 mmHg 89%
    12:00 -1°C° 0.6 mm 6 mps 748 mmHg 90%
    13:00 +1°C° 0.6 mm 6 mps 748 mmHg 91%
    14:00 +1°C° 0.1 mm 5 mps 748 mmHg 92%
    15:00 +1°C° 0.1 mm 5 mps 748 mmHg 94%
    16:00 +1°C° 0.1 mm 5 mps 748 mmHg 95%
    17:00 +2°C° 0.1 mm 5 mps 748 mmHg 96%
    18:00 +2°C° 0.1 mm 5 mps 748 mmHg 96%
    19:00 +3°C° 0.1 mm 5 mps 748 mmHg 96%
    20:00 +3°C° 0.1 mm 5 mps 748 mmHg 96%
    21:00 +5°C° 0.1 mm 5 mps 748 mmHg 96%
    22:00 +5°C° 0.1 mm 5 mps 748 mmHg 96%
    23:00 +5°C° 0 mm 5 mps 748 mmHg 96%

    Tomorrow, 23 November, Thursday

    Time Temperature Precipitation Wind Pressure Humidity
    00:00 +5°C° 0 mm 5 mps 749 mmHg 95%
    01:00 +3°C° 0 mm 5 mps 749 mmHg 95%
    02:00 +3°C° 0 mm 5 mps 749 mmHg 94%
    03:00 +3°C° 0 mm 5 mps 748 mmHg 93%
    04:00 +3°C° 0 mm 5 mps 748 mmHg 92%
    05:00 +3°C° 0 mm 6 mps 748 mmHg 90%
    06:00 +3°C° 0 mm 6 mps 748 mmHg 88%
    07:00 +3°C° 0 mm 6 mps 748 mmHg 85%
    08:00 +3°C° 0 mm 6 mps 748 mmHg 81%
    09:00 +4°C° 0 mm 6 mps 748 mmHg 77%
    10:00 +5°C° 0 mm 6 mps 749 mmHg 73%
    11:00 +5°C° 0 mm 6 mps 748 mmHg 70%
    12:00 +7°C° 0 mm 6 mps 748 mmHg 68%
    13:00 +8°C° 0 mm 7 mps 748 mmHg 65%
    14:00 +7°C° 0 mm 6 mps 748 mmHg 68%
    15:00 +7°C° 0 mm 6 mps 748 mmHg 70%
    16:00 +5°C° 0 mm 6 mps 748 mmHg 72%
    17:00 +7°C° 0 mm 6 mps 749 mmHg 73%
    18:00 +7°C° 0 mm 6 mps 749 mmHg 75%
    19:00 +7°C° 0 mm 6 mps 749 mmHg 76%
    20:00 +7°C° 0 mm 6 mps 749 mmHg 78%
    21:00 +7°C° 0 mm 6 mps 749 mmHg 79%
    22:00 +7°C° 0 mm 6 mps 750 mmHg 81%
    23:00 +7°C° 0 mm 6 mps 750 mmHg 83%

    Day after tomorrow, 24 November, Friday

    Time Temperature Precipitation Wind Pressure Humidity
    00:00 +7°C° 0 mm 6 mps 751 mmHg 85%
    01:00 +7°C° 0 mm 5 mps 751 mmHg 87%
    02:00 +7°C° 0 mm 5 mps 752 mmHg 89%
    03:00 +6°C° 0 mm 4 mps 752 mmHg 91%
    04:00 +6°C° 0 mm 4 mps 752 mmHg 93%
    05:00 +6°C° 0 mm 4 mps 752 mmHg 94%
    06:00 +5°C° 0 mm 4 mps 752 mmHg 95%
    07:00 +5°C° 0 mm 4 mps 753 mmHg 95%
    08:00 +6°C° 0 mm 4 mps 753 mmHg 94%
    09:00 +6°C° 0 mm 4 mps 752 mmHg 92%
    10:00 +7°C° 0 mm 5 mps 752 mmHg 90%
    11:00 +8°C° 0 mm 5 mps 752 mmHg 87%
    12:00 +9°C° 0 mm 6 mps 752 mmHg 83%
    13:00 +10°C° 0 mm 7 mps 751 mmHg 79%
    14:00 +9°C° 0 mm 7 mps 751 mmHg 81%
    15:00 +9°C° 0 mm 6 mps 751 mmHg 82%
    16:00 +9°C° 0 mm 6 mps 750 mmHg 83%
    17:00 +9°C° 0 mm 6 mps 750 mmHg 82%
    18:00 +9°C° 0 mm 6 mps 750 mmHg 81%
    19:00 +9°C° 0 mm 6 mps 750 mmHg 80%
    20:00 +9°C° 0.3 mm 6 mps 751 mmHg 82%
    21:00 +9°C° 0.3 mm 5 mps 751 mmHg 84%
    22:00 +9°C° 0.3 mm 5 mps 752 mmHg 85%
    23:00 +8°C° 0.1 mm 4 mps 752 mmHg 88%

    25 November, Saturday

    Time Temperature Precipitation Wind Pressure Humidity
    00:00 +9°C° 0.1 mm 3 mps 752 mmHg 90%
    01:00 +8°C° 0.1 mm 2 mps 752 mmHg 92%
    02:00 +8°C° 0.1 mm 2 mps 752 mmHg 93%
    03:00 +8°C° 0.1 mm 2 mps 752 mmHg 94%
    04:00 +8°C° 0.1 mm 2 mps 751 mmHg 94%
    05:00 +8°C° 0.4 mm 3 mps 751 mmHg 93%
    06:00 +7°C° 0.4 mm 4 mps 750 mmHg 93%
    07:00 +7°C° 0.4 mm 5 mps 749 mmHg 92%
    08:00 +7°C° 0.4 mm 5 mps 749 mmHg 88%
    09:00 +8°C° 0.4 mm 6 mps 748 mmHg 84%
    10:00 +8°C° 0.4 mm 6 mps 747 mmHg 80%
    11:00 +8°C° 0.2 mm 6 mps 746 mmHg 77%
    12:00 +9°C° 0.2 mm 6 mps 745 mmHg 74%
    13:00 +9°C° 0.2 mm 6 mps 745 mmHg 72%
    14:00 +9°C° 0.1 mm 7 mps 744 mmHg 73%
    15:00 +8°C° 0.1 mm 7 mps 744 mmHg 74%
    16:00 +8°C° 0.1 mm 7 mps 743 mmHg 76%
    17:00 +8°C° 0.1 mm 7 mps 743 mmHg 76%
    18:00 +8°C° 0.1 mm 7 mps 742 mmHg 77%
    19:00 +8°C° 0.1 mm 7 mps 742 mmHg 78%
    20:00 +8°C° 0.2 mm 7 mps 742 mmHg 80%
    21:00 +8°C° 0.2 mm 7 mps 742 mmHg 82%
    22:00 +7°C° 0.2 mm 6 mps 742 mmHg 84%
    23:00 +5°C° 0.4 mm 7 mps 742 mmHg 84%

    26 November, Sunday

    Time Temperature Precipitation Wind Pressure Humidity
    00:00 +4°C° 0.4 mm 7 mps 743 mmHg 84%
    01:00 +2°C° 0.4 mm 8 mps 743 mmHg 84%
    02:00 +2°C° 0.4 mm 8 mps 744 mmHg 80%
    03:00 +2°C° 0.4 mm 9 mps 745 mmHg 77%
    04:00 +2°C° 0.4 mm 9 mps 746 mmHg 74%
    05:00 +2°C° 0.2 mm 8 mps 747 mmHg 74%
    06:00 +2°C° 0.2 mm 8 mps 748 mmHg 74%
    07:00 +3°C° 0.2 mm 7 mps 749 mmHg 75%
    08:00 +2°C° 0.1 mm 8 mps 749 mmHg 74%
    09:00 +1°C° 0.1 mm 8 mps 750 mmHg 74%
    10:00 +1°C° 0.1 mm 8 mps 750 mmHg 73%
    11:00 +1°C° 0 mm 8 mps 750 mmHg 72%
    12:00 +1°C° 0 mm 8 mps 750 mmHg 71%
    13:00 +1°C° 0 mm 8 mps 750 mmHg 70%
    14:00 +1°C° 0.1 mm 8 mps 750 mmHg 71%
    15:00 +1°C° 0.1 mm 8 mps 750 mmHg 71%
    16:00 +1°C° 0.1 mm 8 mps 750 mmHg 71%
    17:00 +1°C° 0.3 mm 9 mps 750 mmHg 72%
    18:00 +1°C° 0.3 mm 9 mps 750 mmHg 73%
    19:00 +1°C° 0.3 mm 9 mps 750 mmHg 74%
    20:00 +1°C° 0.3 mm 9 mps 750 mmHg 75%
    21:00 +1°C° 0.3 mm 9 mps 750 mmHg 76%
    22:00 +1°C° 0.3 mm 9 mps 750 mmHg 77%
    23:00 +1°C° 0 mm 8 mps 750 mmHg 77%

    27 November, Monday

    Time Temperature Precipitation Wind Pressure Humidity
    00:00 +1°C° 0 mm 8 mps 749 mmHg 78%
    01:00 +1°C° 0 mm 8 mps 749 mmHg 78%
    02:00 +1°C° 0.3 mm 8 mps 749 mmHg 79%
    03:00 +1°C° 0.3 mm 8 mps 749 mmHg 79%
    04:00 +1°C° 0.3 mm 8 mps 749 mmHg 80%
    05:00 +1°C° 0.1 mm 8 mps 749 mmHg 79%
    06:00 +1°C° 0.1 mm 8 mps 749 mmHg 79%
    07:00 +1°C° 0.1 mm 8 mps 749 mmHg 79%
    08:00 +1°C° 0.3 mm 8 mps 749 mmHg 78%
    09:00 0°C° 0.3 mm 9 mps 750 mmHg 78%
    10:00 0°C° 0.3 mm 9 mps 750 mmHg 78%
    11:00 +1°C° 0.1 mm 9 mps 750 mmHg 78%
    12:00 +2°C° 0.1 mm 9 mps 750 mmHg 78%
    13:00 +2°C° 0.1 mm 8 mps 750 mmHg 77%
    14:00 +2°C° 0.2 mm 8 mps 751 mmHg 78%
    15:00 +2°C° 0.2 mm 8 mps 751 mmHg 79%
    16:00 +2°C° 0.2 mm 8 mps 751 mmHg 79%
    17:00 +2°C° 0.1 mm 8 mps 751 mmHg 79%
    18:00 +1°C° 0.1 mm 8 mps 751 mmHg 79%
    19:00 +1°C° 0.1 mm 8 mps 752 mmHg 79%
    20:00 +1°C° 0 mm 8 mps 752 mmHg 79%
    21:00 0°C° 0 mm 7 mps 752 mmHg 80%
    22:00 0°C° 0 mm 7 mps 752 mmHg 81%
    23:00 +1°C° 0 mm 6 mps 752 mmHg 83%
    Show more